Weather History for KPEO - November, 2012

Change the Weather History Date:

Saturday, November 17, 2012

  Actual Average (KITH) Record (KITH)
Temperature  
Mean Temperature 38 °F -  
Max Temperature 48 °F 43 °F 69 °F (1990)
Min Temperature 28 °F 28 °F 7 °F (1943)
Degree Days  
Heating Degree Days 27    
Moisture  
Dew Point 31 °F    
Average Humidity 89    
Maximum Humidity 100    
Minimum Humidity 54    
Precipitation  
Precipitation 0.00 in - - ()
Sea Level Pressure  
Sea Level Pressure 30.60 in    
Wind  
Wind Speed 4 mph (SW)    
Max Wind Speed 7 mph    
Max Gust Speed -    
Visibility 4 miles    
Events Fog    
Averages and records for this station are not official NWS values.
T = Trace of Precipitation, MM = Missing Value Source: NWS Daily Summary

Daily Weather History Graph

Daily Weather History Graph

Search for Another Location

Airport or City:

Trip Planner

Search our weather history database for the weather conditions in past years. The results will help you decide how hot, cold, wet, or windy it might be!

Date:

Astronomy

Nov. 17, 2012 Rise Set
Actual Time 7:02 AM EST 4:43 PM EST
Civil Twilight 6:32 AM EST 5:13 PM EST
Nautical Twilight 5:57 AM EST 5:48 PM EST
Astronomical Twilight 5:24 AM EST 6:21 PM EST
Moon 10:45 AM EST (11/17) 8:51 PM EST (11/17)
Length of Visible Light 10h 41m
Length of Day
9h 40m
Waxing Crescent, 20% of the Moon is Illuminated
Nov 17
Waxing Crescent
Nov 20
First Quarter
Nov 28
Full
Dec 6
Last Quarter
Dec 13
New

Hourly Weather History & Observations

Time (EST) Temp. Windchill Dew Point Humidity Pressure Visibility Wind Dir Wind Speed Gust Speed Precip Events Conditions
12:04 AM 32.0 °F 27.5 °F 30.2 °F 93% 30.50 in 1.8 mi SW 4.6 mph - N/A   Scattered Clouds
12:09 AM 32.0 °F 27.5 °F 30.2 °F 93% 30.50 in 2.5 mi SW 4.6 mph - N/A   Mostly Cloudy
12:16 AM 32.0 °F 27.5 °F 30.2 °F 93% 30.50 in 1.8 mi SSW 4.6 mph - N/A   Mostly Cloudy
12:26 AM 33.8 °F 27.7 °F 32.0 °F 93% 30.50 in 0.2 mi SSW 6.9 mph - N/A Fog Fog
12:53 AM 32.0 °F 28.7 °F 32.0 °F 100% 30.53 in 0.2 mi SW 3.5 mph - N/A Fog Fog
1:53 AM 32.0 °F 26.4 °F 30.9 °F 96% 30.54 in 0.2 mi SSW 5.8 mph - N/A Fog Fog
2:53 AM 32.0 °F 27.5 °F 30.9 °F 96% 30.56 in 0.2 mi SW 4.6 mph - N/A Fog Fog
3:17 AM 32.0 °F 26.4 °F 30.2 °F 93% 30.53 in 1.5 mi SW 5.8 mph - N/A   Overcast
3:27 AM 32.0 °F 26.4 °F 30.2 °F 93% 30.53 in 0.5 mi SW 5.8 mph - N/A Fog Fog
3:53 AM 32.0 °F 26.4 °F 30.9 °F 96% 30.57 in 1.2 mi SW 5.8 mph - N/A   Overcast
4:06 AM 32.0 °F 26.4 °F 30.2 °F 93% 30.54 in 2.0 mi SW 5.8 mph - N/A   Overcast
4:17 AM 30.2 °F 24.3 °F 30.2 °F 100% 30.54 in 3.0 mi SW 5.8 mph - N/A   Mostly Cloudy
4:40 AM 30.2 °F 25.4 °F 30.2 °F 100% 30.55 in 2.0 mi SW 4.6 mph - N/A   Mostly Cloudy
4:50 AM 30.2 °F 25.4 °F 30.2 °F 100% 30.55 in 1.8 mi SW 4.6 mph - N/A   Overcast
4:53 AM 30.9 °F 26.2 °F 30.0 °F 96% 30.58 in 1.5 mi SW 4.6 mph - N/A   Overcast
5:16 AM 30.2 °F 26.7 °F 30.2 °F 100% 30.56 in 0.5 mi SW 3.5 mph - N/A Fog Light Freezing Fog
5:53 AM 30.9 °F 26.2 °F 30.9 °F 100% 30.60 in 0.2 mi SW 4.6 mph - N/A Fog Light Freezing Fog
6:53 AM 30.9 °F 27.5 °F 30.0 °F 96% 30.63 in 0.2 mi SSW 3.5 mph - N/A Fog Light Freezing Fog
8:40 AM 32.0 °F 26.4 °F 32.0 °F 100% 30.62 in 1.8 mi SW 5.8 mph - N/A   Mostly Cloudy
8:45 AM 32.0 °F 26.4 °F 32.0 °F 100% 30.62 in 2.5 mi SW 5.8 mph - N/A   Mostly Cloudy
8:53 AM 33.1 °F 28.7 °F 32.0 °F 96% 30.66 in 2.5 mi SW 4.6 mph - N/A   Scattered Clouds
9:01 AM 33.8 °F 27.7 °F 32.0 °F 93% 30.62 in 3.0 mi SW 6.9 mph - N/A   Partly Cloudy
9:53 AM 36.0 °F 30.3 °F 34.0 °F 93% 30.67 in 6.0 mi SW 6.9 mph - N/A   Clear
10:53 AM 42.1 °F 40.2 °F 35.1 °F 76% 30.67 in 10.0 mi WSW 3.5 mph - N/A   Clear
11:53 AM 45.0 °F - 34.0 °F 65% 30.65 in 10.0 mi Calm Calm - N/A   Clear
12:53 PM 48.0 °F - 33.1 °F 56% 30.63 in 10.0 mi Calm Calm - N/A   Clear
1:53 PM 48.9 °F - 33.1 °F 54% 30.62 in 10.0 mi Calm Calm - N/A   Clear
2:53 PM 48.0 °F - 33.1 °F 56% 30.62 in 10.0 mi Variable 3.5 mph - N/A   Clear
3:53 PM 46.0 °F 44.8 °F 33.1 °F 61% 30.62 in 10.0 mi ENE 3.5 mph - N/A   Clear
4:53 PM 41.0 °F - 30.9 °F 67% 30.63 in 10.0 mi Calm Calm - N/A   Clear
5:53 PM 35.1 °F 32.2 °F 30.0 °F 82% 30.64 in 9.0 mi ESE 3.5 mph - N/A   Clear
6:53 PM 32.0 °F - 28.0 °F 85% 30.64 in 9.0 mi Calm Calm - N/A   Clear
7:53 PM 28.9 °F - 26.1 °F 89% 30.65 in 8.0 mi Calm Calm - N/A   Clear
8:53 PM 33.1 °F - 28.9 °F 85% 30.66 in 7.0 mi Calm Calm - N/A   Clear
9:53 PM 30.0 °F - 28.0 °F 92% 30.67 in 6.0 mi Calm Calm - N/A   Clear
10:53 PM 30.9 °F - 28.9 °F 92% 30.67 in 5.0 mi Calm Calm - N/A   Clear
11:13 PM 30.2 °F - 28.4 °F 93% 30.64 in 2.0 mi Calm Calm - N/A   Clear
11:33 PM 30.2 °F - 28.4 °F 93% 30.63 in 3.0 mi Calm Calm - N/A   Clear
11:53 PM 30.9 °F - 30.0 °F 96% 30.66 in 4.0 mi Calm Calm - N/A   Clear